[[{"header":{"parameterUnit":"m.s-1","parameterCategory":1,"la1":30.2991,"la2":30.254,"lo1":-89.0895,"lo2":-89.0444,"dy":0.0017,"dx":0.0017,"nx":28,"ny":28,"refTime":"2024-02-11T09:00:00:Z","depth":0,"parameterNumber":2,"parameterNumberName":"U-component_of_WINDS"},"data":[0,0,0,0,0,0,0,0,0,0,0,0,0,0,0,0,0,0,0,0,0,0,0,0,0,0,0,0,0,0,0,0,0,0,0,0,0,0,0,0,0,0,0,0,0,0,0,0,0,0,0,0,0,0,0,0,0,0,-3.6391,-3.639,0,-3.6358,-3.6358,-3.6358,-3.6299,-3.6298,-3.6297,-3.6296,-3.6263,-3.6263,-3.6263,0,0,0,0,0,0,0,0,0,0,0,0,0,-3.6402,-3.6402,-3.6391,-3.639,-3.639,-3.6358,-3.6358,-3.6357,-3.6299,-3.6298,-3.6297,-3.6296,-3.6263,-3.6263,-3.6263,0,0,0,0,0,0,0,0,0,0,0,0,0,-3.6386,-3.6402,-3.6391,-3.6357,-3.6354,-3.6358,-3.6358,-3.6357,-3.63,-3.6298,-3.6296,-3.6295,-3.6263,-3.6263,-3.6263,-3.6298,0,0,-3.6264,-3.6264,0,0,0,0,0,0,0,0,-3.6387,-3.6386,-3.6363,-3.636,-3.6356,-3.6331,-3.635,-3.6338,-3.63,-3.632,-3.6296,-3.6294,-3.6287,-3.6285,-3.6283,-3.6297,-3.6295,-3.6264,-3.6264,-3.6264,-3.6264,0,0,0,0,0,0,0,-3.6388,-3.6387,-3.6378,-3.6362,-3.6358,-3.6344,-3.634,-3.6347,-3.6313,-3.6318,-3.6314,-3.6311,-3.6285,-3.6283,-3.6282,-3.6295,-3.6264,-3.6264,-3.6264,-3.6265,-3.6333,-3.6334,0,0,0,0,0,0,-3.6394,-3.6388,-3.6379,-3.6377,-3.6368,-3.6345,-3.634,-3.6341,-3.6313,-3.6307,-3.6313,-3.6308,-3.6283,-3.6281,-3.628,-3.6316,-3.6264,-3.6265,-3.6265,-3.6331,-3.6333,-3.6335,0,0,0,0,0,0,-3.6395,-3.6394,-3.638,-3.6381,-3.6379,-3.6346,-3.6347,-3.6341,-3.6339,-3.6309,-3.6302,-3.6316,-3.6282,-3.628,-3.6293,-3.6315,-3.6265,-3.6265,-3.6329,-3.6332,-3.6334,-3.6391,0,0,0,0,0,0,-3.6396,-3.6395,-3.6408,-3.6382,-3.6379,-3.6394,-3.6349,-3.6342,-3.6339,-3.6334,-3.6311,-3.6305,-3.628,-3.6293,-3.6294,-3.6314,-3.6265,-3.6327,-3.633,-3.6333,-3.6387,-3.6395,-3.6402,0,0,0,0,0,-3.6396,-3.6426,-3.6409,-3.6408,-3.6394,-3.6396,-3.6394,-3.6364,-3.6341,-3.6353,-3.6334,-3.6306,-3.6313,-3.6295,-3.6295,-3.6316,-3.6325,-3.6329,-3.6333,-3.6384,-3.6394,-3.6402,0,0,0,0,0,0,-3.6455,-3.6422,-3.6402,-3.6425,-3.6413,-3.6386,-3.64,-3.6376,-3.6371,-3.6366,-3.633,-3.6325,-3.6343,-3.6331,-3.6312,-3.6347,-3.6315,-3.6319,-3.6353,-3.6362,-3.637,-3.6371,-3.6265,0,0,0,0,0,-3.647,-3.6474,-3.6445,-3.6468,-3.6463,-3.6433,-3.6433,-3.6411,-3.6398,-3.6393,-3.6374,-3.6363,-3.6362,-3.6362,-3.636,-3.6386,-3.6379,-3.64,-3.6408,-3.6414,-3.6417,-3.6427,-3.6435,-3.6347,-3.6347,-3.6347,0,0,-3.6502,-3.6485,-3.6489,-3.6479,-3.6468,-3.6472,-3.6429,-3.6436,-3.6438,-3.6394,-3.6404,-3.6391,-3.6375,-3.6395,-3.6402,-3.6385,-3.644,-3.6419,-3.6424,-3.6423,-3.6432,-3.644,-3.6448,-3.635,-3.6349,-3.6349,0,0,-3.6562,-3.655,-3.6566,-3.6556,-3.6539,-3.6519,-3.6523,-3.6499,-3.6488,-3.6498,-3.6464,-3.6467,-3.6467,-3.6456,-3.6451,-3.6507,-3.6479,-3.6507,-3.6545,-3.6556,-3.6563,-3.6569,-3.6585,-3.6592,-3.6511,-3.6511,-3.6511,0,-3.6603,-3.6608,-3.6578,-3.6586,-3.6581,-3.6541,-3.6556,-3.6548,-3.6532,-3.6529,-3.6511,-3.6509,-3.6496,-3.6511,-3.6524,-3.6522,-3.6524,-3.6508,-3.6564,-3.657,-3.6575,-3.659,-3.6597,-3.6514,-3.6514,-3.6514,-3.6513,0,-3.6659,-3.6663,-3.6678,-3.6662,-3.666,-3.6672,-3.6642,-3.6644,-3.6623,-3.6604,-3.6614,-3.6598,-3.659,-3.6593,-3.6573,-3.6604,-3.6594,-3.6571,-3.6537,-3.6587,-3.6601,-3.6607,-3.6519,-3.6518,-3.6517,-3.6516,0,0,-3.6752,-3.672,-3.6725,-3.6717,-3.6695,-3.6698,-3.6708,-3.67,-3.6701,-3.6692,-3.6697,-3.6698,-3.6676,-3.667,-3.6649,-3.6658,-3.6699,-3.6633,-3.6632,-3.6643,-3.673,-3.6746,-3.6753,-3.6683,-3.6684,-3.6685,-3.673,0,-3.6805,-3.6819,-3.6792,-3.6812,-3.6814,-3.6776,-3.6785,-3.6772,-3.6756,-3.6755,-3.6737,-3.6736,-3.6709,-3.6704,-3.6713,-3.6693,-3.6716,-3.669,-3.6686,-3.6686,-3.6688,-3.6761,-3.6777,-3.6821,-3.6736,-3.6737,-3.6738,0,-3.6868,-3.686,-3.6881,-3.6857,-3.6857,-3.6865,-3.6854,-3.6855,-3.684,-3.6827,-3.682,-3.6794,-3.6801,-3.6771,-3.6779,-3.6762,-3.6759,-3.6749,-3.675,-3.6746,-3.6713,-3.6756,-3.6835,-3.684,-3.6747,-3.6746,-3.6745,0,-3.693,-3.6926,-3.6937,-3.6931,-3.6904,-3.691,-3.6899,-3.6882,-3.6879,-3.6871,-3.6868,-3.6861,-3.6856,-3.6851,-3.6824,-3.6805,-3.6834,-3.6803,-3.6822,-3.6822,-3.6827,-3.6827,-3.6904,-3.6831,-3.6831,-3.6831,-3.6831,0,-3.699,-3.7003,-3.6964,-3.697,-3.6984,-3.6952,-3.6966,-3.6952,-3.6937,-3.6939,-3.6908,-3.691,-3.6876,-3.6874,-3.6854,-3.6862,-3.6861,-3.6849,-3.6843,-3.685,-3.6851,-3.6846,-3.6841,-3.6833,-3.6832,-3.6832,-3.6832,0,-3.706,-3.7035,-3.7044,-3.7018,-3.7011,-3.7022,-3.6999,-3.7004,-3.6985,-3.6989,-3.6988,-3.6959,-3.6955,-3.6928,-3.692,-3.6905,-3.692,-3.691,-3.6925,-3.692,-3.694,-3.6937,-3.7013,-3.7021,-3.6947,-3.6947,-3.6948,0,-3.7099,-3.7108,-3.7082,-3.7081,-3.7072,-3.7071,-3.7067,-3.7037,-3.7034,-3.7017,-3.7023,-3.7017,-3.7011,-3.7007,-3.6985,-3.6977,-3.6964,-3.6992,-3.6963,-3.6969,-3.6961,-3.6959,-3.6959,-3.6997,-3.6998,-3.6999,-3.6999,0,-3.7168,-3.7155,-3.715,-3.7142,-3.7138,-3.713,-3.7119,-3.7121,-3.7087,-3.7085,-3.7081,-3.7076,-3.7067,-3.706,-3.7049,-3.7037,-3.7012,-3.7009,-3.7012,-3.7018,-3.7025,-3.7019,-3.6938,-3.7007,-3.7006,-3.7005,-3.7005,-3.7005,-3.7221,-3.7227,-3.7209,-3.7205,-3.7194,-3.7185,-3.7187,-3.7169,-3.7165,-3.7154,-3.7137,-3.7135,-3.7118,-3.71,-3.709,-3.7088,-3.7073,-3.7079,-3.708,-3.7081,-3.7084,-3.7029,-3.7086,-3.7086,-3.7086,-3.7085,-3.7085,0,-3.7286,-3.7273,-3.727,-3.7256,-3.7252,-3.723,-3.7217,-3.7215,-3.7214,-3.7201,-3.7195,-3.7189,-3.7183,-3.716,-3.7151,-3.7153,-3.7141,-3.7152,-3.715,-3.7147,-3.7099,-3.7095,-3.7161,-3.7161,-3.7161,-3.7161,-3.7161,-3.7161,-3.7319,-3.7326,-3.7311,-3.7312,-3.7299,-3.7296,-3.7291,-3.7282,-3.7271,-3.7266,-3.726,-3.7246,-3.7228,-3.7217,-3.721,-3.7203,-3.72,-3.7214,-3.7203,-3.7158,-3.7151,-3.7143,-3.714,-3.7214,-3.7214,-3.7251,-3.7251,-3.7251]},{"header":{"parameterUnit":"m.s-1","parameterCategory":1,"la1":30.2991,"la2":30.254,"lo1":-89.0895,"lo2":-89.0444,"dy":0.0017,"dx":0.0017,"nx":28,"ny":28,"refTime":"2024-02-11T09:00:00:Z","depth":0,"parameterNumber":3,"parameterNumberName":"V-component_of_WINDS"},"data":[0,0,0,0,0,0,0,0,0,0,0,0,0,0,0,0,0,0,0,0,0,0,0,0,0,0,0,0,0,0,0,0,0,0,0,0,0,0,0,0,0,0,0,0,0,0,0,0,0,0,0,0,0,0,0,0,0,0,3.8972,3.8973,0,3.9105,3.9107,3.9108,3.9151,3.915,3.915,3.9149,3.9282,3.9286,3.929,0,0,0,0,0,0,0,0,0,0,0,0,0,3.8752,3.8756,3.8972,3.8974,3.8975,3.9105,3.9107,3.9109,3.9151,3.915,3.9149,3.9149,3.928,3.9285,3.929,0,0,0,0,0,0,0,0,0,0,0,0,0,3.8863,3.8757,3.8972,3.9012,3.9017,3.9105,3.9107,3.9109,3.9151,3.915,3.9149,3.9148,3.9279,3.9285,3.9291,3.9346,0,0,3.9309,3.9312,0,0,0,0,0,0,0,0,3.8856,3.8871,3.9004,3.9009,3.9015,3.9111,3.9078,3.9188,3.9151,3.91,3.9149,3.9148,3.9225,3.9236,3.9263,3.9353,3.9358,3.931,3.9314,3.9316,3.9318,0,0,0,0,0,0,0,3.8849,3.8865,3.9025,3.9006,3.9013,3.9023,3.9038,3.9099,3.9166,3.9104,3.9108,3.9123,3.9228,3.9256,3.9266,3.936,3.931,3.9315,3.9319,3.9321,3.9505,3.9507,0,0,0,0,0,0,3.8835,3.8859,3.902,3.9029,3.8932,3.9028,3.9044,3.9081,3.9165,3.9177,3.9124,3.9125,3.9246,3.9259,3.9271,3.9344,3.9316,3.9322,3.9326,3.9504,3.9506,3.9507,0,0,0,0,0,0,3.883,3.8849,3.9015,3.8945,3.8967,3.9032,3.9073,3.9084,3.9113,3.918,3.9192,3.9141,3.9246,3.9262,3.9328,3.9349,3.9325,3.933,3.9503,3.9505,3.9506,3.9489,0,0,0,0,0,0,3.8823,3.8847,3.8869,3.8945,3.897,3.9071,3.9074,3.9087,3.9124,3.9126,3.9199,3.9211,3.9247,3.9319,3.9334,3.9357,3.9335,3.9501,3.9504,3.9506,3.9488,3.949,3.9492,0,0,0,0,0,3.8815,3.8857,3.887,3.8889,3.9,3.9072,3.9086,3.9128,3.9125,3.9148,3.9192,3.9208,3.9344,3.9325,3.9343,3.9368,3.95,3.9503,3.9506,3.9487,3.949,3.9492,0,0,0,0,0,0,3.878,3.8868,3.8883,3.8951,3.9004,3.9079,3.9109,3.9129,3.9183,3.9183,3.9231,3.9247,3.931,3.9345,3.9323,3.9428,3.9423,3.9429,3.9403,3.9406,3.9407,3.9399,3.934,0,0,0,0,0,3.8781,3.8833,3.8906,3.8959,3.8985,3.9043,3.9075,3.9104,3.916,3.9182,3.923,3.9284,3.9339,3.9374,3.9428,3.9493,3.951,3.9519,3.9521,3.9522,3.9527,3.9567,3.9572,3.9516,3.9516,3.9516,0,0,3.8782,3.8836,3.8866,3.8954,3.8998,3.9051,3.9061,3.9116,3.9156,3.919,3.9257,3.9294,3.9356,3.9423,3.9455,3.9454,3.9547,3.9525,3.9526,3.9531,3.957,3.9575,3.958,3.9518,3.9517,3.9517,0,0,3.8811,3.8857,3.8908,3.8952,3.902,3.9058,3.907,3.9143,3.917,3.9238,3.9265,3.9313,3.9405,3.945,3.9485,3.9533,3.9551,3.9549,3.9559,3.9597,3.9601,3.9606,3.9625,3.9631,3.9554,3.9553,3.9553,0,3.8804,3.8886,3.893,3.8986,3.9024,3.9059,3.9111,3.9151,3.9233,3.9258,3.9257,3.9376,3.942,3.9499,3.9511,3.9537,3.9553,3.9541,3.9597,3.9602,3.9607,3.9626,3.9633,3.9553,3.9553,3.9553,3.9553,0,3.8875,3.8931,3.8963,3.9044,3.9086,3.9138,3.9191,3.9228,3.9252,3.929,3.936,3.9414,3.9481,3.9501,3.9524,3.9584,3.9582,3.9588,3.9585,3.9611,3.963,3.9637,3.9552,3.9552,3.9553,3.9553,0,0,3.8886,3.8992,3.9003,3.9041,3.9119,3.9164,3.9218,3.9285,3.9317,3.9372,3.942,3.9498,3.9505,3.9545,3.9573,3.9606,3.9644,3.9609,3.9611,3.9615,3.9716,3.9712,3.972,3.9656,3.9657,3.9658,3.9711,0,3.8928,3.9029,3.9071,3.9153,3.9206,3.9241,3.9289,3.9341,3.9379,3.9429,3.9469,3.9526,3.9529,3.9554,3.9588,3.9632,3.9665,3.9628,3.9701,3.9704,3.9687,3.973,3.9726,3.9773,3.9719,3.972,3.9721,0,3.899,3.9048,3.9135,3.9209,3.9233,3.9276,3.9342,3.939,3.945,3.9475,3.952,3.9548,3.9606,3.9598,3.968,3.9654,3.9686,3.9713,3.9715,3.9726,3.9715,3.9743,3.9789,3.9797,3.9732,3.9731,3.9731,0,3.8992,3.9092,3.9158,3.9189,3.9276,3.9306,3.9343,3.9403,3.9442,3.9499,3.9525,3.9587,3.9622,3.9669,3.9713,3.9702,3.9792,3.9786,3.9815,3.9814,3.9834,3.9832,3.9888,3.985,3.985,3.985,3.985,0,3.9036,3.9088,3.9161,3.9202,3.9262,3.931,3.9368,3.9408,3.9461,3.951,3.9542,3.9587,3.9641,3.9693,3.9727,3.9791,3.9806,3.9828,3.9837,3.9827,3.9824,3.985,3.9849,3.9852,3.9851,3.9851,3.9851,0,3.905,3.91,3.9175,3.9252,3.9273,3.9314,3.938,3.9421,3.946,3.9522,3.9539,3.96,3.9663,3.9711,3.9792,3.9815,3.9884,3.9892,3.9864,3.9869,3.9896,3.9894,3.9972,3.9986,3.9936,3.9937,3.9937,0,3.9075,3.9117,3.92,3.9236,3.9274,3.9331,3.9371,3.942,3.946,3.9534,3.9566,3.9632,3.9688,3.9786,3.9838,3.99,3.9911,3.9934,3.9921,3.991,3.9915,3.9913,3.9918,3.9937,3.9937,3.9937,3.9937,0,3.9116,3.9139,3.9197,3.9264,3.9312,3.9366,3.9421,3.9448,3.9507,3.9551,3.9617,3.966,3.9744,3.981,3.9878,3.9915,3.9937,3.9941,3.9952,3.9943,3.9926,3.9938,3.9872,3.9939,3.9939,3.9939,3.9939,3.9939,3.9138,3.9178,3.9243,3.9307,3.9354,3.9405,3.9449,3.9494,3.9551,3.9625,3.9649,3.9718,3.9779,3.9873,3.9912,3.9966,3.9966,3.9981,3.9985,3.9988,3.9989,3.9916,3.9978,3.9978,3.9978,3.9978,3.9978,0,3.9182,3.9227,3.9285,3.9362,3.9413,3.9429,3.9492,3.9533,3.9593,3.9649,3.9704,3.9781,3.9845,3.9901,3.9968,4.0001,4.0012,4.0017,4.0016,4.0025,3.9983,3.9969,4.0006,4.0006,4.0006,4.0006,4.0006,4.0006,3.9212,3.9281,3.9313,3.9406,3.945,3.9519,3.9554,3.9601,3.9647,3.9732,3.9786,3.9823,3.988,3.9951,4.0011,4.0026,4.005,4.0052,4.007,4.0031,4.0027,4.0024,4.0011,4.0057,4.0057,4.0107,4.0108,4.0108]}]]